Location: ?????????
(38.5999°N, 22.7695°E)
Time: 09:05:20
(UTC+00:00)

RESURS DK-1 - Pass Details

Date: 23 May 2024
Orbit: 541 x 547 km, 69.9° (Epoch: 23 June)

Event Time Altitude Azimuth Distance (km) Brightness Sun altitude
Rises 02:07:58 0° 327° (NNW) 2,717 5.9 -11.2°
Reaches altitude 10° 02:10:16 10° 318° (NW) 1,820 4.9 -10.8°
Maximum altitude 02:14:00 36° 252° (WSW) 882 2.9 -10.2°
Drops below altitude 10° 02:17:43 10° 185° (S) 1,811 4.6 -9.6°
Sets 02:20:00 0° 177° (S) 2,700 5.5 -9.3°
